When you browse on this site, cookies collect data to enhance your experience and personalize the content and advertising you see.
Visit our Privacy Policy to learn more. By continuing to use the site, you agree to this use of cookies and data.
  • en Suisse
  • Liste des pays
  • À 7 jours
  • Température de l'eau
  • Carte satellitaire
  • Carte météo
  • Widgets météo
  • user-avatar
    Se connecter

    Météo par heure à Rio Branco

    Ce jour, 24 Janvier, Jeudi

    Heure Température Précipitation Vent Pression Humidité
    00:00 +26°C° 0.3 mm 1 m/s 746 mmHg 96%
    01:00 +26°C° 0.3 mm 1 m/s 746 mmHg 97%
    02:00 +25°C° 0 mm 1 m/s 745 mmHg 98%
    03:00 +25°C° 0 mm 1 m/s 745 mmHg 98%
    04:00 +25°C° 0 mm 1 m/s 745 mmHg 98%
    05:00 +23°C° 0 mm 0 m/s 746 mmHg 97%
    06:00 +24°C° 0 mm 0 m/s 746 mmHg 95%
    07:00 +24°C° 0 mm 0 m/s 747 mmHg 94%
    08:00 +25°C° 1.1 mm 0 m/s 747 mmHg 92%
    09:00 +26°C° 1.1 mm 0 m/s 747 mmHg 90%
    10:00 +27°C° 1.1 mm 0 m/s 747 mmHg 88%
    11:00 +30°C° 0.6 mm 1 m/s 747 mmHg 82%
    12:00 +31°C° 0.6 mm 1 m/s 746 mmHg 75%
    13:00 +32°C° 0.6 mm 1 m/s 745 mmHg 69%
    14:00 +31°C° 1.9 mm 1 m/s 745 mmHg 77%
    15:00 +30°C° 1.9 mm 1 m/s 744 mmHg 85%
    16:00 +29°C° 1.9 mm 1 m/s 744 mmHg 93%
    17:00 +28°C° 1.2 mm 1 m/s 744 mmHg 95%
    18:00 +27°C° 1.2 mm 1 m/s 744 mmHg 96%
    19:00 +26°C° 1.2 mm 1 m/s 745 mmHg 97%
    20:00 +24°C° 0 mm 0 m/s 745 mmHg 97%
    21:00 +24°C° 0 mm 0 m/s 746 mmHg 97%
    22:00 +23°C° 0 mm 0 m/s 746 mmHg 97%
    23:00 +23°C° 0 mm 0 m/s 746 mmHg 97%

    Demain, 25 Janvier, Vendredi

    Heure Température Précipitation Vent Pression Humidité
    00:00 +23°C° 0 mm 0 m/s 746 mmHg 97%
    01:00 +23°C° 0 mm 0 m/s 746 mmHg 97%
    02:00 +23°C° 0 mm 0 m/s 745 mmHg 97%
    03:00 +23°C° 0 mm 0 m/s 745 mmHg 97%
    04:00 +24°C° 0 mm 1 m/s 745 mmHg 97%
    05:00 +23°C° 0 mm 0 m/s 746 mmHg 96%
    06:00 +23°C° 0 mm 0 m/s 746 mmHg 96%
    07:00 +23°C° 0 mm 0 m/s 747 mmHg 95%
    08:00 +25°C° 0 mm 0 m/s 747 mmHg 89%
    09:00 +28°C° 0 mm 1 m/s 747 mmHg 83%
    10:00 +30°C° 0 mm 1 m/s 747 mmHg 77%
    11:00 +30°C° 0 mm 1 m/s 746 mmHg 75%
    12:00 +31°C° 0 mm 1 m/s 745 mmHg 73%
    13:00 +31°C° 0 mm 1 m/s 744 mmHg 71%
    14:00 +31°C° 0 mm 1 m/s 743 mmHg 72%
    15:00 +31°C° 0 mm 1 m/s 743 mmHg 72%
    16:00 +29°C° 0 mm 0 m/s 742 mmHg 73%
    17:00 +28°C° 0 mm 0 m/s 742 mmHg 78%
    18:00 +26°C° 0 mm 0 m/s 743 mmHg 83%
    19:00 +27°C° 0 mm 1 m/s 743 mmHg 88%
    20:00 +25°C° 0 mm 0 m/s 744 mmHg 88%
    21:00 +24°C° 0 mm 0 m/s 745 mmHg 88%
    22:00 +24°C° 0 mm 0 m/s 745 mmHg 87%
    23:00 +26°C° 0 mm 1 m/s 745 mmHg 88%

    Après-demain, 26 Janvier, Samedi

    Heure Température Précipitation Vent Pression Humidité
    00:00 +26°C° 0 mm 1 m/s 745 mmHg 88%
    01:00 +26°C° 0 mm 1 m/s 744 mmHg 88%
    02:00 +26°C° 0 mm 1 m/s 744 mmHg 90%
    03:00 +25°C° 0 mm 1 m/s 744 mmHg 92%
    04:00 +25°C° 0 mm 1 m/s 744 mmHg 95%
    05:00 +25°C° 0 mm 1 m/s 745 mmHg 93%
    06:00 +26°C° 0 mm 1 m/s 745 mmHg 91%
    07:00 +25°C° 0 mm 0 m/s 746 mmHg 89%
    08:00 +27°C° 0.2 mm 1 m/s 746 mmHg 88%
    09:00 +28°C° 0.2 mm 1 m/s 746 mmHg 88%
    10:00 +28°C° 0.2 mm 1 m/s 746 mmHg 88%
    11:00 +30°C° 0 mm 1 m/s 745 mmHg 79%
    12:00 +32°C° 0 mm 1 m/s 744 mmHg 69%
    13:00 +33°C° 0 mm 0 m/s 743 mmHg 60%
    14:00 +34°C° 0.2 mm 1 m/s 742 mmHg 63%
    15:00 +33°C° 0.2 mm 1 m/s 742 mmHg 66%
    16:00 +33°C° 0.2 mm 1 m/s 741 mmHg 70%
    17:00 +31°C° 0.2 mm 1 m/s 742 mmHg 76%
    18:00 +29°C° 0.2 mm 1 m/s 742 mmHg 83%
    19:00 +28°C° 0.2 mm 1 m/s 742 mmHg 90%
    20:00 +27°C° 0 mm 1 m/s 743 mmHg 90%
    21:00 +27°C° 0 mm 1 m/s 744 mmHg 90%
    22:00 +27°C° 0 mm 1 m/s 744 mmHg 90%
    23:00 +26°C° 0.3 mm 1 m/s 744 mmHg 92%

    27 Janvier, Dimanche

    Heure Température Précipitation Vent Pression Humidité
    00:00 +26°C° 0.3 mm 1 m/s 743 mmHg 93%
    01:00 +26°C° 0.3 mm 1 m/s 743 mmHg 95%
    02:00 +26°C° 0.6 mm 1 m/s 743 mmHg 95%
    03:00 +23°C° 0.6 mm 0 m/s 743 mmHg 96%
    04:00 +23°C° 0.6 mm 0 m/s 743 mmHg 96%
    05:00 +24°C° 0 mm 0 m/s 744 mmHg 95%
    06:00 +24°C° 0 mm 0 m/s 744 mmHg 94%
    07:00 +27°C° 0 mm 1 m/s 745 mmHg 93%
    08:00 +28°C° 1.5 mm 1 m/s 745 mmHg 91%
    09:00 +30°C° 1.5 mm 1 m/s 745 mmHg 89%
    10:00 +31°C° 1.5 mm 1 m/s 745 mmHg 86%
    11:00 +31°C° 1.8 mm 1 m/s 744 mmHg 85%
    12:00 +31°C° 1.8 mm 1 m/s 743 mmHg 83%
    13:00 +32°C° 1.8 mm 1 m/s 742 mmHg 82%
    14:00 +32°C° 0.4 mm 1 m/s 741 mmHg 78%
    15:00 +32°C° 0.4 mm 1 m/s 741 mmHg 75%
    16:00 +32°C° 0.4 mm 1 m/s 740 mmHg 71%
    17:00 +29°C° 0 mm 0 m/s 741 mmHg 76%
    18:00 +27°C° 0 mm 0 m/s 741 mmHg 81%
    19:00 +26°C° 0 mm 0 m/s 742 mmHg 86%
    20:00 +26°C° 0 mm 0 m/s 742 mmHg 87%
    21:00 +25°C° 0 mm 0 m/s 743 mmHg 87%
    22:00 +25°C° 0 mm 0 m/s 743 mmHg 88%
    23:00 +25°C° 0.1 mm 0 m/s 743 mmHg 89%

    28 Janvier, Lundi

    Heure Température Précipitation Vent Pression Humidité
    00:00 +27°C° 0.1 mm 1 m/s 743 mmHg 91%
    01:00 +26°C° 0.1 mm 1 m/s 742 mmHg 93%
    02:00 +26°C° 2 mm 1 m/s 742 mmHg 95%
    03:00 +26°C° 2 mm 1 m/s 742 mmHg 96%
    04:00 +25°C° 2 mm 1 m/s 742 mmHg 98%
    05:00 +26°C° 2.3 mm 1 m/s 743 mmHg 98%
    06:00 +24°C° 2.3 mm 0 m/s 744 mmHg 97%
    07:00 +25°C° 2.3 mm 0 m/s 745 mmHg 96%
    08:00 +28°C° 1.3 mm 1 m/s 745 mmHg 94%
    09:00 +28°C° 1.3 mm 1 m/s 745 mmHg 92%
    10:00 +29°C° 1.3 mm 2 m/s 745 mmHg 90%
    11:00 +30°C° 1.6 mm 2 m/s 744 mmHg 89%
    12:00 +30°C° 1.6 mm 1 m/s 743 mmHg 87%
    13:00 +30°C° 1.6 mm 1 m/s 743 mmHg 85%
    14:00 +30°C° 1.3 mm 1 m/s 742 mmHg 86%
    15:00 +31°C° 1.3 mm 1 m/s 742 mmHg 88%
    16:00 +31°C° 1.3 mm 1 m/s 741 mmHg 89%
    17:00 +29°C° 1.9 mm 1 m/s 742 mmHg 91%
    18:00 +28°C° 1.9 mm 1 m/s 742 mmHg 94%
    19:00 +27°C° 1.9 mm 1 m/s 743 mmHg 96%
    20:00 +26°C° 0.1 mm 1 m/s 744 mmHg 97%
    21:00 +26°C° 0.1 mm 1 m/s 744 mmHg 97%
    22:00 +26°C° 0.1 mm 1 m/s 745 mmHg 98%
    23:00 +26°C° 0 mm 1 m/s 745 mmHg 98%

    29 Janvier, Mardi

    Heure Température Précipitation Vent Pression Humidité
    00:00 +26°C° 0 mm 1 m/s 744 mmHg 98%
    01:00 +26°C° 0 mm 1 m/s 744 mmHg 98%
    02:00 +26°C° 1.2 mm 1 m/s 744 mmHg 97%
    03:00 +26°C° 1.2 mm 1 m/s 744 mmHg 97%
    04:00 +26°C° 1.2 mm 1 m/s 744 mmHg 97%
    05:00 +26°C° 0.2 mm 1 m/s 744 mmHg 97%
    06:00 +26°C° 0.2 mm 1 m/s 745 mmHg 97%
    07:00 +26°C° 0.2 mm 1 m/s 745 mmHg 97%
    08:00 +27°C° 1.1 mm 1 m/s 745 mmHg 94%
    09:00 +28°C° 1.1 mm 2 m/s 745 mmHg 90%
    10:00 +30°C° 1.1 mm 2 m/s 745 mmHg 87%
    11:00 +30°C° 1.9 mm 2 m/s 745 mmHg 87%
    12:00 +30°C° 1.9 mm 1 m/s 744 mmHg 88%
    13:00 +30°C° 1.9 mm 1 m/s 743 mmHg 88%
    14:00 +29°C° 2.1 mm 1 m/s 743 mmHg 91%
    15:00 +28°C° 2.1 mm 1 m/s 743 mmHg 93%
    16:00 +27°C° 2.1 mm 1 m/s 742 mmHg 96%
    17:00 +26°C° 0.3 mm 1 m/s 743 mmHg 97%
    18:00 +26°C° 0.3 mm 1 m/s 744 mmHg 97%
    19:00 +25°C° 0.3 mm 1 m/s 744 mmHg 98%
    20:00 +25°C° 0.6 mm 1 m/s 745 mmHg 98%
    21:00 +25°C° 0.6 mm 1 m/s 745 mmHg 98%
    22:00 +25°C° 0.6 mm 1 m/s 746 mmHg 98%
    23:00 +25°C° 0.4 mm 1 m/s 745 mmHg 98%
    Voir plus